Time,TemperatureF,DewpointF,PressureIn,WindDirection,WindDirectionDegrees,WindSpeedMPH,WindSpeedGustMPH,Humidity,HourlyPrecipIn,Conditions,Clouds,dailyrainin,SoftwareType,DateUTC
2013-07-15 00:02:00,87.3,61.5,29.89,SSW,203,1.8,4.7,42,0.00,,,0.00,WUHU216HW,2013-07-15 07:02:00,
2013-07-15 00:13:00,87.3,62.1,29.89,WSW,248,5.6,5.8,43,0.00,,,0.00,WUHU216HW,2013-07-15 07:13:00,
2013-07-15 00:23:00,87.1,61.9,29.90,SW,225,4.0,4.0,43,0.00,,,0.00,WUHU216HW,2013-07-15 07:23:00,
2013-07-15 00:33:00,86.9,61.7,29.90,NNE,23,1.1,1.6,43,0.00,,,0.00,WUHU216HW,2013-07-15 07:33:00,
2013-07-15 00:43:00,86.8,61.6,29.90,East,90,0.4,1.6,43,0.00,,,0.00,WUHU216HW,2013-07-15 07:43:00,
2013-07-15 00:53:00,86.4,61.9,29.90,ENE,68,0.9,2.0,44,0.00,,,0.00,WUHU216HW,2013-07-15 07:53:00,
2013-07-15 01:03:00,86.2,61.8,29.89,SE,135,1.1,1.1,44,0.00,,,0.00,WUHU216HW,2013-07-15 08:03:00,
2013-07-15 01:13:00,86.0,61.6,29.89,ESE,113,1.3,1.3,44,0.00,,,0.00,WUHU216HW,2013-07-15 08:13:00,
2013-07-15 01:23:00,85.7,61.2,29.90,SE,135,0.4,1.8,44,0.00,,,0.00,WUHU216HW,2013-07-15 08:23:00,
2013-07-15 01:33:00,85.3,61.6,29.89,ESE,113,1.8,2.5,45,0.00,,,0.00,WUHU216HW,2013-07-15 08:33:00,
2013-07-15 01:43:00,85.0,61.2,29.89,SE,135,0.7,1.8,45,0.00,,,0.00,WUHU216HW,2013-07-15 08:43:00,
2013-07-15 01:53:00,85.0,61.2,29.89,ESE,113,0.7,1.3,45,0.00,,,0.00,WUHU216HW,2013-07-15 08:53:00,
2013-07-15 02:03:00,84.6,61.6,29.89,SE,135,1.3,1.3,46,0.00,,,0.00,WUHU216HW,2013-07-15 09:03:00,
2013-07-15 02:13:00,84.2,61.2,29.89,SE,135,0.0,1.6,46,0.00,,,0.00,WUHU216HW,2013-07-15 09:13:00,
2013-07-15 02:23:00,83.9,61.5,29.89,South,180,0.7,0.7,47,0.00,,,0.00,WUHU216HW,2013-07-15 09:23:00,
2013-07-15 02:33:00,83.7,61.3,29.89,SE,135,0.9,1.1,47,0.00,,,0.00,WUHU216HW,2013-07-15 09:33:00,
2013-07-15 02:43:00,83.5,61.7,29.89,East,90,0.0,1.1,48,0.00,,,0.00,WUHU216HW,2013-07-15 09:43:00,
2013-07-15 02:53:00,83.2,61.4,29.89,ENE,68,0.4,1.1,48,0.00,,,0.00,WUHU216HW,2013-07-15 09:53:00,
2013-07-15 03:03:00,82.8,61.7,29.89,East,90,0.0,1.1,49,0.00,,,0.00,WUHU216HW,2013-07-15 10:03:00,
2013-07-15 03:13:00,82.6,61.5,29.89,ENE,68,0.0,0.0,49,0.00,,,0.00,WUHU216HW,2013-07-15 10:13:00,
2013-07-15 03:24:00,82.4,61.9,29.89,ENE,68,0.0,0.0,50,0.00,,,0.00,WUHU216HW,2013-07-15 10:24:00,
2013-07-15 03:34:00,82.1,62.1,29.88,East,90,0.4,0.7,51,0.00,,,0.00,WUHU216HW,2013-07-15 10:34:00,
2013-07-15 03:44:00,81.7,61.8,29.89,SE,135,0.9,0.9,51,0.00,,,0.00,WUHU216HW,2013-07-15 10:44:00,
2013-07-15 03:54:00,81.5,61.7,29.89,SSE,158,0.4,1.1,51,0.00,,,0.00,WUHU216HW,2013-07-15 10:54:00,
2013-07-15 04:04:00,81.2,61.8,29.89,SSW,203,0.4,1.1,52,0.00,,,0.00,WUHU216HW,2013-07-15 11:04:00,
2013-07-15 04:14:00,80.8,62.0,29.89,South,180,0.4,0.7,53,0.00,,,0.00,WUHU216HW,2013-07-15 11:14:00,
2013-07-15 04:24:00,80.6,62.4,29.89,SSW,203,0.0,0.0,54,0.00,,,0.00,WUHU216HW,2013-07-15 11:24:00,
2013-07-15 04:34:00,80.3,62.6,29.89,SSW,203,0.0,0.0,55,0.00,,,0.00,WUHU216HW,2013-07-15 11:34:00,
2013-07-15 04:44:00,79.9,62.3,29.89,ESE,113,0.0,0.0,55,0.00,,,0.00,WUHU216HW,2013-07-15 11:44:00,
2013-07-15 04:54:00,79.7,62.7,29.90,SE,135,0.0,0.0,56,0.00,,,0.00,WUHU216HW,2013-07-15 11:54:00,
2013-07-15 05:04:00,79.6,62.5,29.90,SE,135,0.0,0.0,56,0.00,,,0.00,WUHU216HW,2013-07-15 12:04:00,
2013-07-15 05:14:00,79.4,62.8,29.90,East,90,0.0,0.0,57,0.00,,,0.00,WUHU216HW,2013-07-15 12:14:00,
2013-07-15 05:24:00,79.2,62.6,29.90,East,90,1.1,1.6,57,0.00,,,0.00,WUHU216HW,2013-07-15 12:24:00,
2013-07-15 05:34:00,79.2,62.1,29.90,ESE,113,0.9,1.1,56,0.00,,,0.00,WUHU216HW,2013-07-15 12:34:00,
2013-07-15 05:44:00,79.2,62.1,29.90,ESE,113,0.7,0.7,56,0.00,,,0.00,WUHU216HW,2013-07-15 12:44:00,
2013-07-15 05:54:00,79.4,62.3,29.91,ESE,113,0.0,0.2,56,0.00,,,0.00,WUHU216HW,2013-07-15 12:54:00,
2013-07-15 06:04:00,79.4,62.3,29.91,ESE,113,0.4,1.1,56,0.00,,,0.00,WUHU216HW,2013-07-15 13:04:00,
2013-07-15 06:14:00,79.7,62.7,29.91,SE,135,0.0,0.4,56,0.00,,,0.00,WUHU216HW,2013-07-15 13:14:00,
2013-07-15 06:24:00,79.9,63.3,29.91,ESE,113,0.0,0.0,57,0.00,,,0.00,WUHU216HW,2013-07-15 13:24:00,
2013-07-15 06:34:00,80.1,63.5,29.91,SE,135,0.0,0.7,57,0.00,,,0.00,WUHU216HW,2013-07-15 13:34:00,
2013-07-15 06:44:00,80.3,64.2,29.91,East,90,0.4,0.4,58,0.00,,,0.00,WUHU216HW,2013-07-15 13:44:00,
2013-07-15 06:54:00,81.0,64.3,29.91,NE,45,0.2,0.7,57,0.00,,,0.00,WUHU216HW,2013-07-15 13:54:00,
2013-07-15 07:05:00,81.4,64.1,29.92,ENE,68,0.4,1.1,56,0.00,,,0.00,WUHU216HW,2013-07-15 14:05:00,
2013-07-15 07:15:00,81.9,64.1,29.92,ESE,113,0.2,0.9,55,0.00,,,0.00,WUHU216HW,2013-07-15 14:15:00,
2013-07-15 07:25:00,83.0,64.5,29.92,WSW,248,0.0,0.4,54,0.00,,,0.00,WUHU216HW,2013-07-15 14:25:00,
2013-07-15 07:35:00,83.9,64.9,29.92,SW,225,0.4,2.5,53,0.00,,,0.00,WUHU216HW,2013-07-15 14:35:00,
2013-07-15 07:45:00,84.6,65.6,29.93,ESE,113,0.0,1.1,53,0.00,,,0.00,WUHU216HW,2013-07-15 14:45:00,
2013-07-15 07:55:00,85.3,65.7,29.93,NNW,338,0.0,2.2,52,0.00,,,0.00,WUHU216HW,2013-07-15 14:55:00,
2013-07-15 08:05:00,86.0,65.9,29.93,NNW,338,0.9,1.8,51,0.00,,,0.00,WUHU216HW,2013-07-15 15:05:00,
2013-07-15 08:15:00,86.8,66.0,29.93,SE,135,0.4,1.1,50,0.00,,,0.00,WUHU216HW,2013-07-15 15:15:00,
2013-07-15 08:25:00,87.7,65.5,29.93,SE,135,0.4,2.5,48,0.00,,,0.00,WUHU216HW,2013-07-15 15:25:00,
2013-07-15 08:36:00,88.6,65.7,29.93,WSW,248,0.4,2.0,47,0.00,,,0.00,WUHU216HW,2013-07-15 15:36:00,
2013-07-15 08:46:00,89.3,65.1,29.93,NE,45,1.1,1.6,45,0.00,,,0.00,WUHU216HW,2013-07-15 15:46:00,
2013-07-15 08:56:00,89.8,65.5,29.93,West,270,0.2,2.0,45,0.00,,,0.00,WUHU216HW,2013-07-15 15:56:00,
2013-07-15 09:06:00,90.4,64.7,29.92,WSW,248,2.0,3.1,43,0.00,,,0.00,WUHU216HW,2013-07-15 16:06:00,
2013-07-15 09:16:00,90.9,65.2,29.92,SSW,203,4.0,4.0,43,0.00,,,0.00,WUHU216HW,2013-07-15 16:16:00,
2013-07-15 09:28:00,92.2,65.7,29.92,SW,225,2.0,2.7,42,0.00,,,0.00,WUHU216HW,2013-07-15 16:28:00,
2013-07-15 09:38:00,93.1,65.8,29.92,SW,225,1.3,4.7,41,0.00,,,0.00,WUHU216HW,2013-07-15 16:38:00,
2013-07-15 09:48:00,93.6,65.7,29.92,WNW,293,3.1,6.3,40,0.00,,,0.00,WUHU216HW,2013-07-15 16:48:00,
2013-07-15 09:58:00,94.1,64.5,29.92,West,270,1.8,5.6,38,0.00,,,0.00,WUHU216HW,2013-07-15 16:58:00,
2013-07-15 10:08:00,94.5,64.9,29.92,WSW,248,4.3,6.5,38,0.00,,,0.00,WUHU216HW,2013-07-15 17:08:00,
2013-07-15 10:18:00,95.8,66.0,29.91,SE,135,0.0,5.6,38,0.00,,,0.00,WUHU216HW,2013-07-15 17:18:00,
2013-07-15 10:28:00,96.5,64.2,29.91,SW,225,2.2,4.3,35,0.00,,,0.00,WUHU216HW,2013-07-15 17:28:00,
2013-07-15 10:38:00,96.8,64.4,29.91,West,270,5.6,5.6,35,0.00,,,0.00,WUHU216HW,2013-07-15 17:38:00,
2013-07-15 10:48:00,97.4,64.1,29.91,SSW,203,3.4,6.7,34,0.00,,,0.00,WUHU216HW,2013-07-15 17:48:00,
2013-07-15 10:58:00,97.6,63.5,29.91,SSW,203,2.2,5.8,33,0.00,,,0.00,WUHU216HW,2013-07-15 17:58:00,
2013-07-15 11:09:00,98.1,63.1,29.91,NNW,338,6.3,6.3,32,0.00,,,0.00,WUHU216HW,2013-07-15 18:09:00,
2013-07-15 11:19:00,98.3,64.1,29.90,WSW,248,2.7,4.7,33,0.00,,,0.00,WUHU216HW,2013-07-15 18:19:00,
2013-07-15 11:29:00,99.5,63.5,29.90,WSW,248,5.1,5.1,31,0.00,,,0.00,WUHU216HW,2013-07-15 18:29:00,
2013-07-15 11:39:00,100.1,64.1,29.90,WSW,248,4.0,5.4,31,0.00,,,0.00,WUHU216HW,2013-07-15 18:39:00,
2013-07-15 11:49:00,100.1,63.2,29.90,SW,225,2.5,7.4,30,0.00,,,0.00,WUHU216HW,2013-07-15 18:49:00,
2013-07-15 11:59:00,100.4,63.5,29.89,WSW,248,6.0,6.0,30,0.00,,,0.00,WUHU216HW,2013-07-15 18:59:00,
2013-07-15 12:09:00,100.8,62.7,29.89,SW,225,6.5,7.6,29,0.00,,,0.00,WUHU216HW,2013-07-15 19:09:00,
2013-07-15 12:19:00,101.5,63.3,29.89,SW,225,3.4,6.3,29,0.00,,,0.00,WUHU216HW,2013-07-15 19:19:00,
2013-07-15 12:30:00,101.9,63.5,29.88,WSW,248,3.4,7.6,29,0.00,,,0.00,WUHU216HW,2013-07-15 19:30:00,
2013-07-15 12:40:00,102.2,62.7,29.87,WSW,248,6.9,10.5,28,0.00,,,0.00,WUHU216HW,2013-07-15 19:40:00,
2013-07-15 12:50:00,102.6,61.9,29.87,SSW,203,5.4,5.8,27,0.00,,,0.00,WUHU216HW,2013-07-15 19:50:00,
2013-07-15 13:01:00,103.0,62.2,29.86,SW,225,8.5,8.9,27,0.00,,,0.00,WUHU216HW,2013-07-15 20:01:00,
2013-07-15 13:11:00,103.3,62.6,29.86,WSW,248,3.6,6.7,27,0.00,,,0.00,WUHU216HW,2013-07-15 20:11:00,
2013-07-15 13:21:00,103.7,62.8,29.85,WSW,248,2.9,7.4,27,0.00,,,0.00,WUHU216HW,2013-07-15 20:21:00,
2013-07-15 13:31:00,103.9,61.8,29.85,NW,315,7.8,9.4,26,0.00,,,0.00,WUHU216HW,2013-07-15 20:31:00,
2013-07-15 13:41:00,104.0,62.0,29.85,SW,225,3.4,9.4,26,0.00,,,0.00,WUHU216HW,2013-07-15 20:41:00,
2013-07-15 13:51:00,103.7,61.7,29.84,NE,45,5.4,9.8,26,0.00,,,0.00,WUHU216HW,2013-07-15 20:51:00,
2013-07-15 14:01:00,103.7,61.7,29.84,WSW,248,6.3,7.6,26,0.00,,,0.00,WUHU216HW,2013-07-15 21:01:00,
2013-07-15 14:11:00,103.7,60.6,29.83,WSW,248,4.7,8.5,25,0.00,,,0.00,WUHU216HW,2013-07-15 21:11:00,
2013-07-15 14:21:00,104.0,60.8,29.83,SW,225,5.1,6.9,25,0.00,,,0.00,WUHU216HW,2013-07-15 21:21:00,
2013-07-15 14:31:00,104.4,61.1,29.82,NW,315,5.8,7.2,25,0.00,,,0.00,WUHU216HW,2013-07-15 21:31:00,
2013-07-15 14:42:00,104.6,61.3,29.81,SSW,203,6.3,7.4,25,0.00,,,0.00,WUHU216HW,2013-07-15 21:42:00,
2013-07-15 14:52:00,104.8,61.4,29.81,WNW,293,4.7,9.2,25,0.00,,,0.00,WUHU216HW,2013-07-15 21:52:00,
2013-07-15 15:02:00,104.0,59.7,29.80,WNW,293,6.3,9.2,24,0.00,,,0.00,WUHU216HW,2013-07-15 22:02:00,
2013-07-15 15:12:00,104.0,59.7,29.80,NNW,338,3.1,9.2,24,0.00,,,0.00,WUHU216HW,2013-07-15 22:12:00,
2013-07-15 15:22:00,104.0,59.7,29.79,North,0,5.6,9.8,24,0.00,,,0.00,WUHU216HW,2013-07-15 22:22:00,
2013-07-15 15:32:00,104.0,59.7,29.79,WSW,248,4.7,10.3,24,0.00,,,0.00,WUHU216HW,2013-07-15 22:32:00,
2013-07-15 15:42:00,103.7,59.4,29.79,West,270,1.8,9.4,24,0.00,,,0.00,WUHU216HW,2013-07-15 22:42:00,
2013-07-15 15:52:00,103.7,59.4,29.79,West,270,7.2,8.9,24,0.00,,,0.00,WUHU216HW,2013-07-15 22:52:00,
2013-07-15 16:02:00,103.5,59.2,29.79,NW,315,4.3,10.5,24,0.00,,,0.00,WUHU216HW,2013-07-15 23:02:00,
2013-07-15 16:13:00,103.5,59.2,29.78,WNW,293,2.7,8.5,24,0.00,,,0.00,WUHU216HW,2013-07-15 23:13:00,
2013-07-15 16:23:00,103.7,59.4,29.78,SSW,203,4.0,11.4,24,0.00,,,0.00,WUHU216HW,2013-07-15 23:23:00,
2013-07-15 16:33:00,103.9,59.6,29.78,NW,315,4.9,6.3,24,0.00,,,0.00,WUHU216HW,2013-07-15 23:33:00,
2013-07-15 16:43:00,103.7,59.4,29.78,WSW,248,5.1,7.4,24,0.00,,,0.00,WUHU216HW,2013-07-15 23:43:00,
2013-07-15 16:53:00,102.4,61.8,29.79,SW,225,9.6,12.3,27,0.00,,,0.00,WUHU216HW,2013-07-15 23:53:00,
2013-07-15 17:03:00,98.5,60.7,29.79,WSW,248,8.5,17.0,29,0.00,,,0.00,WUHU216HW,2013-07-16 00:03:00,
2013-07-15 17:14:00,96.3,62.4,29.79,WSW,248,10.5,14.3,33,0.00,,,0.00,WUHU216HW,2013-07-16 00:14:00,
2013-07-15 17:24:00,95.4,62.4,29.78,SSW,203,7.4,14.1,34,0.00,,,0.00,WUHU216HW,2013-07-16 00:24:00,
2013-07-15 17:34:00,94.7,61.7,29.79,SW,225,7.4,8.7,34,0.00,,,0.00,WUHU216HW,2013-07-16 00:34:00,
2013-07-15 17:44:00,95.0,61.3,29.79,SSW,203,5.4,6.9,33,0.00,,,0.00,WUHU216HW,2013-07-16 00:44:00,
2013-07-15 17:54:00,95.2,61.5,29.80,SW,225,3.6,6.9,33,0.00,,,0.00,WUHU216HW,2013-07-16 00:54:00,
2013-07-15 18:04:00,95.2,62.3,29.82,WSW,248,5.4,12.1,34,0.00,,,0.00,WUHU216HW,2013-07-16 01:04:00,
2013-07-15 18:14:00,94.0,61.9,29.81,SW,225,5.4,6.0,35,0.00,,,0.00,WUHU216HW,2013-07-16 01:14:00,
2013-07-15 18:24:00,93.2,61.3,29.81,SW,225,5.1,5.8,35,0.00,,,0.00,WUHU216HW,2013-07-16 01:24:00,
2013-07-15 18:34:00,93.1,61.1,29.81,West,270,5.4,7.4,35,0.00,,,0.00,WUHU216HW,2013-07-16 01:34:00,
2013-07-15 18:44:00,92.9,60.2,29.82,West,270,2.7,5.1,34,0.00,,,0.00,WUHU216HW,2013-07-16 01:44:00,
2013-07-15 18:54:00,92.9,60.2,29.82,WSW,248,3.4,3.4,34,0.00,,,0.00,WUHU216HW,2013-07-16 01:54:00,
2013-07-15 19:04:00,92.7,60.9,29.83,NNW,338,5.6,6.3,35,0.00,,,0.00,WUHU216HW,2013-07-16 02:04:00,
2013-07-15 19:14:00,92.3,60.5,29.83,WNW,293,3.8,5.4,35,0.00,,,0.00,WUHU216HW,2013-07-16 02:14:00,
2013-07-15 19:24:00,92.0,60.2,29.83,WSW,248,2.0,4.9,35,0.00,,,0.00,WUHU216HW,2013-07-16 02:24:00,
2013-07-15 19:35:00,91.8,60.8,29.84,SW,225,1.8,5.1,36,0.00,,,0.00,WUHU216HW,2013-07-16 02:35:00,
2013-07-15 19:45:00,91.4,60.6,29.84,WNW,293,1.1,2.5,36,0.00,,,0.00,WUHU216HW,2013-07-16 02:45:00,
2013-07-15 19:56:00,91.1,61.8,29.85,SW,225,1.8,1.8,38,0.00,,,0.00,WUHU216HW,2013-07-16 02:56:00,
2013-07-15 20:06:00,90.4,62.7,29.85,SSW,203,3.1,3.4,40,0.00,,,0.00,WUHU216HW,2013-07-16 03:06:00,
2013-07-15 20:16:00,90.0,63.1,29.85,WSW,248,7.4,7.4,41,0.00,,,0.00,WUHU216HW,2013-07-16 03:16:00,
2013-07-15 20:26:00,89.6,62.1,29.85,WSW,248,1.8,4.0,40,0.00,,,0.00,WUHU216HW,2013-07-16 03:26:00,
2013-07-15 20:36:00,89.6,60.5,29.86,SW,225,2.5,3.6,38,0.00,,,0.00,WUHU216HW,2013-07-16 03:36:00,
2013-07-15 20:46:00,89.3,60.2,29.86,SE,135,1.3,6.3,38,0.00,,,0.00,WUHU216HW,2013-07-16 03:46:00,
2013-07-15 20:56:00,88.9,61.6,29.86,South,180,0.7,3.4,40,0.00,,,0.00,WUHU216HW,2013-07-16 03:56:00,
2013-07-15 21:06:00,88.6,61.8,29.87,WNW,293,0.9,1.8,41,0.00,,,0.00,WUHU216HW,2013-07-16 04:06:00,
2013-07-15 21:17:00,88.2,61.6,29.89,North,0,0.4,1.8,41,0.00,,,0.00,WUHU216HW,2013-07-16 04:17:00,
2013-07-15 21:27:00,87.8,61.3,29.89,ENE,68,0.2,2.0,41,0.00,,,0.00,WUHU216HW,2013-07-16 04:27:00,
2013-07-15 21:37:00,87.7,63.0,29.89,NE,45,3.4,4.5,44,0.00,,,0.00,WUHU216HW,2013-07-16 04:37:00,
2013-07-15 21:47:00,87.1,63.2,29.90,East,90,3.4,5.4,45,0.00,,,0.00,WUHU216HW,2013-07-16 04:47:00,
2013-07-15 21:57:00,86.8,63.5,29.90,ENE,68,2.7,4.9,46,0.00,,,0.00,WUHU216HW,2013-07-16 04:57:00,
2013-07-15 22:07:00,86.4,63.8,29.91,NE,45,1.3,4.9,47,0.00,,,0.00,WUHU216HW,2013-07-16 05:07:00,
2013-07-15 22:17:00,86.2,63.6,29.91,ESE,113,4.0,4.7,47,0.00,,,0.00,WUHU216HW,2013-07-16 05:17:00,
2013-07-15 22:27:00,86.0,63.5,29.92,East,90,1.8,4.0,47,0.00,,,0.00,WUHU216HW,2013-07-16 05:27:00,
2013-07-15 22:37:00,85.9,63.3,29.91,ENE,68,3.4,3.6,47,0.00,,,0.00,WUHU216HW,2013-07-16 05:37:00,
2013-07-15 22:47:00,85.7,63.1,29.91,SSE,158,2.2,3.4,47,0.00,,,0.00,WUHU216HW,2013-07-16 05:47:00,
2013-07-15 22:57:00,85.7,63.1,29.92,SE,135,3.1,4.5,47,0.00,,,0.00,WUHU216HW,2013-07-16 05:57:00,
2013-07-15 23:07:00,85.3,62.8,29.91,SSW,203,2.5,3.4,47,0.00,,,0.00,WUHU216HW,2013-07-16 06:07:00,
2013-07-15 23:17:00,85.3,63.5,29.91,SW,225,0.9,3.4,48,0.00,,,0.00,WUHU216HW,2013-07-16 06:17:00,
2013-07-15 23:27:00,85.1,63.9,29.92,South,180,0.4,1.8,49,0.00,,,0.00,WUHU216HW,2013-07-16 06:27:00,
2013-07-15 23:37:00,85.0,63.7,29.92,SSE,158,1.3,4.5,49,0.00,,,0.00,WUHU216HW,2013-07-16 06:37:00,
2013-07-15 23:48:00,85.0,64.4,29.92,ESE,113,0.4,3.4,50,0.00,,,0.00,WUHU216HW,2013-07-16 06:48:00,
2013-07-15 23:58:00,84.6,65.6,29.92,ESE,113,2.0,3.4,53,0.00,,,0.00,WUHU216HW,2013-07-16 06:58:00,